www.pogodaiklimat.ru

Погода и климат >> Архив погоды >> Россия >> Приморский край >> Владивосток


АРХИВ ПОГОДЫ в Владивостоке

Время (UTC), дата Ветер
(напр.,м/с)
 
Видим.   Явления Облачность Т
(С)
Тd
(С)
f
(%)
Тe
(С)
Тes
(С)
Комфортность P
(гПа)
Po
(гПа)
Тmin
(С)
Tmax
(С)
R
(мм)
S
(см)
18 20.03 СЗ 7
{14}
20 км в посл. час снег 6/0
[As op]
-1.4 -1.8 97 -9 -9 по сезону 1013.5 989.8
21 20.03 СЗ 6 20 км ясно -0.4 -5.2 70 -7 -7 по сезону 1013.0 989.4 -1.4 1 2
00 21.03 СЗ 6
{11}
20 км 8/8 600 м
[Sc]
+0.7 -4.5 68 -5 -5 по сезону 1013.0 989.5
03 21.03 СЗ 9-14
{16}
20 км 8/8 600 м
[Sc]
+4.3 -3.8 56 -2 -1 по сезону 1011.6 988.5
06 21.03 СЗ 10-15
{15}
20 км 8/8 600 м
[Sc]
+6.8 -6.3 39 +2 +2 тепло 1010.3 987.4
09 21.03 СЗ 5
{15}
20 км 3/3 600 м
[Cu hum]
+6.3 -6.7 39 +3 +3 тепло 1011.4 988.5 +7.6
12 21.03 З 6 20 км ясно +4.9 -8.5 37 +1 +1 тепло 1013.3 990.2
15 21.03 З 7-12
{12}
20 км ясно +3.2 -7.4 46 -2 -2 по сезону 1013.6 990.4
18 21.03 З 6
{12}
20 км ясно +2.8 -7.8 46 -2 -2 тепло 1013.5 990.2
21 21.03 З 8-12
{13}
20 км 6/6 600 м
[Sc]
+1.8 -6.5 54 -5 -5 по сезону 1014.2 990.8 +1.8
00 22.03 СЗ 4
{13}
50 км 10/0
[Ci fib]
+2.1 -7.1 51 -2 +1 по сезону 1014.9 991.5 +1.2
03 22.03 СЗ 6 50 км 10/6 600 м
[Sc diur, vesp Ac cast]
+3.2 -7.5 45 -2 -1 по сезону 1014.3 991.0
06 22.03 СЗ 9-14
{14}
50 км 6/6 600 м
[Cb calv]
+4.1 -11.4 31 -1 -1 по сезону 1014.3 991.1
09 22.03 СЗ 8-14
{16}
50 км 3/3 600 м
[Sc diur, vesp]
+2.8 -11.3 35 -3 -3 по сезону 1016.0 992.6 +4.7
12 22.03 СЗ 4
{14}
50 км 3/3 600 м
[Sc diur, vesp]
+1.1 -9.3 46 -3 -3 по сезону 1019.3 995.7
15 22.03 СЗ 3 50 км ясно -0.8 -7.7 59 -5 -5 по сезону 1019.9 996.2
18 22.03 СЗ 5 50 км ясно -0.9 -8.8 55 -7 -7 по сезону 1019.4 995.7
21 22.03 СЗ 3 50 км ясно -1.8 -7.9 63 -6 -6 по сезону 1019.8 996.0 -2.1
00 23.03 СЗ 4 50 км 1/1 600 м
[Sc]
-0.1 -8.0 55 -5 -1 по сезону 1020.6 996.9
03 23.03 З 4
{15}
20 км 9/4 600 м
[Cb cap Ac lent Ci sp]
+2.4 -9.4 41 -2 +1 по сезону 1019.9 996.4
06 23.03 СЗ 8-13
{16}
50 км {ливн. осадки} 8/6 600 м
[Cb cap Ac trans]
+1.7 -7.4 51 -5 -4 прохладно 1019.1 995.6
09 23.03 СЗ 6
{13}
50 км 3/3 600 м
[Sc]
+2.0 -9.1 44 -3 -3 по сезону 1019.3 995.8 +3.6
12 23.03 СЗ 3
{12}
50 км 1/1 600 м
[Sc]
+0.2 -7.5 56 -4 -4 по сезону 1021.2 997.5
15 23.03 СЗ 4 50 км ясно -0.8 -7.3 61 -6 -6 по сезону 1021.9 998.1
18 23.03 СЗ 4 50 км ясно -1.8 -7.1 67 -7 -7 по сезону 1022.1 998.2
21 23.03 СЗ 3 50 км ясно -2.5 -7.2 70 -7 -7 по сезону 1022.3 998.3 -2.6
00 24.03 СЗ 4 50 км ясно 0.0 -7.4 57 -5 -1 по сезону 1022.6 998.8
03 24.03 СЗ 5
{10}
50 км 6/6 600 м
[Sc]
+3.5 -10.9 34 -1 +2 по сезону 1021.4 998.0
06 24.03 СЗ 4
{10}
50 км 3/3 600 м
[Sc]
+5.0 -10.8 31 +2 +5 по сезону 1020.1 996.8
09 24.03 СЗ 3 50 км 3/3 600 м
[Sc]
+3.4 -10.1 36 +1 +1 по сезону 1020.5 997.1 +5.1
12 24.03 З 1 50 км ясно +1.4 -8.8 47 0 0 тепло 1022.2 998.5
15 24.03 З 1 50 км ясно +0.8 -9.8 45 -0 -0 тепло 1022.4 998.7
18 24.03 З 2 50 км ясно +0.4 -11.2 41 -2 -2 по сезону 1022.0 998.3
21 24.03 ЮЗ 1 50 км ясно +0.2 -10.8 43 -1 -1 тепло 1021.6 997.9 0.0
00 25.03 штиль 0 20 км ясно +2.5 -7.7 47 +2 +10 опасность
простуды
1022.0 998.5 -0.6
03 25.03 Ю 3 20 км 3/3 600 м
[Sc]
+5.9 -11.0 28 +4 +11 тепло 1020.8 997.6
06 25.03 Ю 5 20 км 3/3 600 м
[Sc]
+7.7 -10.9 25 +5 +8 тепло 1019.0 996.0
09 25.03 Ю 5 20 км ясно +4.1 -10.6 33 0 0 по сезону 1019.7 996.4 +7.8
12 25.03 Ю 5 20 км ясно +2.0 -1.0 80 -3 -3 по сезону 1020.6 997.1
15 25.03 Ю 4 20 км ясно +1.4 -0.2 89 -4 -4 по сезону 1020.5 996.9
18 25.03 ЮВ 4 20 км ясно +0.7 -0.5 92 -5 -5 по сезону 1019.5 995.9
21 25.03 ЮВ 4 20 км ясно +0.6 0.0 96 -5 -5 по сезону 1019.4 995.8 +0.4
00 26.03 ЮВ 4 20 км 10/10 200 м
[St]
+1.8 +0.7 92 -3 -3 по сезону 1019.8 996.3
03 26.03 ЮВ 6 20 км 10/10 600 м
[Sc]
+4.3 +1.2 80 -1 -1 по сезону 1019.3 996.0
06 26.03 Ю 6 20 км 10/10 600 м
[Sc]
+4.5 +0.3 74 -1 -1 по сезону 1018.2 994.9
09 26.03 Ю 5
{10}
20 км 8/0
[Ac lent Ci fib]
+3.0 +0.3 82 -2 -2 по сезону 1018.2 994.8 +6.1
12 26.03 Ю 4 20 км 10/10 600 м
[Sc]
+2.1 -0.1 85 -3 -3 по сезону 1019.3 995.8
15 26.03 ЮВ 3 20 км 10/10 600 м
[Sc]
+1.4 +0.3 92 -3 -3 по сезону 1019.0 995.5
18 26.03 ЮЗ 2 20 км 10/10 600 м
[Sc]
+2.2 +0.3 87 -1 -1 по сезону 1018.1 994.7
21 26.03 С 1 20 км 10/10 600 м
[Sc]
+1.3 +0.2 92 -1 -1 по сезону 1017.7 994.2 +0.6
00 27.03 С 1 10 км 8/8 600 м
[Sc]
+1.6 -0.3 87 -0 +1 тепло 1018.5 995.0 -0.4
03 27.03 СЗ 6 20 км 4/4 600 м
[Sc]
+2.8 -0.5 79 -3 0 по сезону 1017.8 994.4
06 27.03 З 2 20 км 6/6 600 м
[Sc]
+5.9 -3.4 51 +4 +7 тепло 1015.7 992.6
09 27.03 Ю 2 20 км 3/3 600 м
[Cb cap]
+3.5 -0.9 73 +1 +1 по сезону 1016.5 993.3 +6.4
12 27.03 З 3 20 км 1/1 600 м
[Sc]
+3.1 -2.0 69 -1 -1 по сезону 1018.0 994.7

 

Местоположение метеостанции Владивосток (Приморский край, Россия): широта 43.12 долгота 131.90 высота над уровнем моря 188 м.

В архиве по умолчанию представлена погода в Владивостоке за последнюю неделю. Архивные данные за месяц целиком и за предыдущие месяцы, начиная с января 2011 года, Вы можете получить, выбрав интересующий диапазон дат из раскрывающегося списка и нажав кнопку "Ввод!".

Внимание! Время в таблицах - всемирное. Для получения местного времени необходимо прибавить поправку, которая в Владивостоке равна 10 ч.

Смотрите также архив погоды в соседних городах и на ближайших метеорологических станциях:

Погода в Барабаше (Приморский край, Россия) (42 км)
Погода в Находке (Приморский край, Россия) (81 км)
Погода в Гамове (Приморский край, Россия) (84 км)
Погода в Тимирязевском (Приморский край, Россия) (85 км)
Погода в Партизанске (Приморский край, Россия) (89 км)
Погода в Посьете (Приморский край, Россия) (104 км)
Погода в Полтавке (Приморский край, Россия) (112 км)
Погода в Анучино (Приморский край, Россия) (130 км)
Погода в Хороль (Приморский край, Россия) (146 км)
Погода в Пограничном (Приморский край, Россия) (150 км)

Пояснения к столбцам:

Ветер - указаны скорость ветра в м/с - средняя за 10 мин, порывы в срок и между сроками (в фигурных скобках) и направление, откуда дует ветер: С - северный, СВ - северо-восточный, В - восточный, ЮВ - юго-восточный, Ю - южный, ЮЗ - юго-западный, З - западный, СЗ - северо-западный.
Видимость - горизонтальная дальность видимости в метрах или километрах. При видимости от 1 до 10 км при отсутствии осадков обычно наблюдается дымка, при ухудшении видимости до 1 км и менее - туман. В сухую погоду видимость может ухудшаться дымом, пылью или мглою.
Явления - указаны атмосферные явления, наблюдавшиеся в срок или в последний час перед сроком; фигурными скобками обозначены явления, наблюдавшиеся между сроками (за 1-3 часа до срока); квадратными скобками обозначены град или гололедные отложения с указанием их диаметра в мм.
Облачность - указаны через наклонную черту общая и нижняя облачность в баллах и высота нижней границы облаков в метрах; квадратными скобками обозначены формы облаков: Ci - перистые, Cs - перисто-слоистые, Cc - перисто-кучевые, Ac - высококучевые, As - высокослоистые, Sc - слоисто-кучевые, Ns - слоисто-дождевые, Cu - кучевые, Cb - кучево-дождевые. Подробнее классификацию облаков см. в Атласе облаков (PDF).
T - Температура воздуха - температура, измеренная на высоте 2 м над землей.
Td - Температура точки росы - температура, при понижении до которой содержащийся в воздухе водяной пар достигнет насыщения.
f - Относительная влажность воздуха - влажноcть воздуха, измеренная на высоте 2 м над землей.
Te - Эффективная температура - температура, которую ощущает одетый по сезону человек в тени. Характеристика душности погоды. При расчете учитывается влияние влажности воздуха и скорости ветра на теплоощущения человека.
Tes - Эффективная температура на солнце - температура, которую ощущает человек, с поправкой на солнечный нагрев. Характеристика знойности погоды. Зависит от высоты солнца над горизонтом, облачности и скорости ветра. Ночью, в пасмурную погоду, а также при ветре 12 м/с и более поправка равна нулю.
P - Атмосферное давление - приведенное к уровню моря атмосферное давление.
Po - Атмосферное давление - измеренное на уровне метеостанции атмосферное давление.
Tmin - Минимальная температура - минимум температуры воздуха на высоте 2 м над землей.
Tmax - Максимальная температура - максимум температуры воздуха на высоте 2 м над землей.
R - Количество осадков - Количество выпавших осадков, мм. При наведении курсора мыши на число - период времени, за который выпало указанное количество осадков.
S - Снежный покров - Высота снежного покрова, см. При наведении курсора мыши на число - состояние снежного покрова и степень покрытия местности в баллах.